Regional Weather Roundup
Issued by NWS

Home | Current Version | Previous Version | Text Only | Print | Product List | Glossary On
Versions: 1 2 3 4 5 6 7 8 9 10 11 12 13 14 15 16 17 18 19 20 21 22 23 24 25 26 27 28 29 30 31 32 33 34 35 36 37 38 39 40 41 42 43 44 45 46 47 48 49 50
000
ASUS43 KFSD 170710
RWRSD

WEATHER ROUNDUP FOR SOUTH DAKOTA
NATIONAL WEATHER SERVICE SIOUX FALLS SD
200 AM CDT WED SEP 17 2014

NOTE: "FAIR" INDICATES FEW OR NO CLOUDS BELOW 12,000 FEET WITH NO
SIGNIFICANT WEATHER AND/OR OBSTRUCTIONS TO VISIBILITY.


SDZ001>005-009-010-012>017-170800-
NORTHWEST AND NORTH CENTRAL SOUTH DAKOTA

CITY           SKY/WX    TMP DP  RH WIND       PRES   REMARKS
BUFFALO          N/A     58  45  62 NE3       29.89R
FAITH            N/A     59  50  72 SE8       29.92S
MOBRIDGE       MOCLDY    55  51  86 E3        29.89R
$$

SDZ012>016-024>037-041>051-057-063-072>074-170800-
SOUTHWEST AND SOUTH CENTRAL SOUTH DAKOTA

CITY           SKY/WX    TMP DP  RH WIND       PRES   REMARKS
RAPID CTY ARPT CLEAR     53  45  74 W7        29.95F
PIERRE         PTCLDY    51  48  89 NE5       29.88S
CUSTER         CLEAR     49  39  68 NW5       30.10S
ELLSWORTH AFB  PTCLDY    55  47  72 W7        29.95S
PHILIP         PTCLDY    49  46  90 W3        29.91S
PINE RIDGE     PTCLDY    53  49  86 CALM      29.98S
WINNER         FAIR      61  56  83 SW7       29.92S
$$

SDZ004>011-016>023-039-040-170800-
NORTHEAST SOUTH DAKOTA

CITY           SKY/WX    TMP DP  RH WIND       PRES   REMARKS
ABERDEEN       CLEAR     47  47 100 CALM      29.91S
WATERTOWN      PTCLDY    55  50  83 S8        29.92F
SISSETON         N/A     50  49  96 CALM      29.90F
$$

SDZ017-020-022-023-036>040-048>070-170800-
SOUTHEAST SOUTH DAKOTA

CITY           SKY/WX    TMP DP  RH WIND       PRES   REMARKS
SIOUX FALLS    MOCLDY    58  50  75 S7        29.95F
HURON          MOCLDY    54  51  90 S7        29.90S
CHAMBERLAIN    CLEAR     47  47  99 CALM      29.90S
MITCHELL       PTCLDY    54  52  93 SE7       29.91S
YANKTON        CLEAR     54  48  82 SE5       29.95S
$$

ABBREVIATIONS USED IN REMARKS
   TC - TEMPERATURE IN CELSIUS
  WCI - WIND CHILL INDEX
   HX - HEAT INDEX
  VSB - VISIBILITY



USA.gov is the U.S. government's official web portal to all federal, state and local government web resources and services.